Current Version              Previous Version:    01  02  03  04  05  06  07  08  09  10  11  12  13  14  15  16  17  18  19  20  21  22  23  24  25  26  27  28  29  30  
   31  32  33  34  35  36  37  38  39  40  41  42  43  44  45  46  47  48  49  50  51  52  53  54  55  56  57  58  59  60  

[Printable]
167
ASUS44 KLUB 281201
RWRTX
WEST TEXAS WEATHER ROUNDUP
NATIONAL WEATHER SERVICE LUBBOCK TX
600 AM CST FRI NOV 28 2014

NOTE: "FAIR" INDICATES FEW OR NO CLOUDS BELOW 12,000 FEET WITH NO
SIGNIFICANT WEATHER AND/OR OBSTRUCTIONS TO VISIBILITY.

TXZ004-006>008-010-012-014-016-OKZ002-281300-
TEXAS PANHANDLE/OKLAHOMA PANHANDLE

CITY           SKY/WX    TMP DP  RH WIND       PRES   REMARKS
AMARILLO       PTCLDY    39  28  64 SW12      30.07F WCI  32
BORGER         CLEAR     45  27  49 SW13      30.03F
CANADIAN       CLEAR     35  30  82 CALM      30.02F
DALHART        PTCLDY    30  24  78 SW10      30.06F WCI  21
DUMAS            N/A     38  26  64 W8        30.05S WCI  32
GUYMON         PTCLDY    37  25  61 W8        29.99S WCI  31
HEREFORD       CLEAR     38  30  72 S12       30.09F WCI  31
$$

TXZ026-029-035-045-048-281300-
SOUTHERN PANHANDLE/SOUTH PLAINS/ROLLING PLAINS

CITY           SKY/WX    TMP DP  RH WIND       PRES   REMARKS
CHILDRESS      CLEAR     37  31  78 S9        30.09F WCI  30
LUBBOCK        PTCLDY    41  30  65 SW14      30.14S
$$

TXZ052-054-060>062-072-078-127-140-154-169-281300-
PERMIAN BASIN/CONCHO VALLEY/BIG COUNTRY/EDWARDS PLATEAU

CITY           SKY/WX    TMP DP  RH WIND       PRES   REMARKS
ABILENE        CLEAR     48  35  60 S12G24    30.20F
JUNCTION       CLOUDY    42  37  82 W5        30.27F
MIDLAND        PTCLDY    42  34  73 S5        30.19F
ODESSA         CLEAR     43  34  70 SW9       30.20F
SAN ANGELO     CLEAR     49  43  80 S16       30.22F
WINK           PTCLDY    36  30  79 SE6       30.18F WCI  31
$$

TXZ055-058-074-075-080-082-281300-
FAR WEST/SOUTHWEST MOUNTAINS/TRANS PECOS

CITY           SKY/WX    TMP DP  RH WIND       PRES   REMARKS
ALPINE         PTCLDY    49  23  35 SW15      30.30F
DRYDEN           N/A     39  34  82 N5        30.24F
EL PASO        PTCLDY    38  21  50 N8        30.25S WCI  32
FORT STOCKTON  CLEAR     42  28  57 S8        30.19F
MARFA          PTCLDY    23  18  80 N5        30.30F WCI  17
$$

TXZ014-016-019-021>030-083-281300
TEXAS TECH WEST TEXAS MESONET/TEXAS PANHANDLE/NORTHERN SOUTH PLAINS

CITY           SKY/WX    TMP DP  RH WIND       PRES   REMARKS
ABERNATHY 5ENE   N/A     37  30  77 SW9       30.14F WCI  30
AMARILLO 9NNE    N/A     37  28  70 S7        30.07F WCI  31
AMARILLO 7SSE    N/A     38  28  67 SW14      30.08F WCI  30
AMHERST 1NE      N/A     39  28  65 SW10      30.13F WCI  32
BOOTLEG 11WNW    N/A     42  24  49 W15       30.12S
CANADIAN 6E      N/A     37  29  74 S7        30.01F WCI  31
CAPROCK CYN SP   N/A     49  29  46 W25       30.06F
CHILDRESS 2NNE   N/A     34  31  87 S7        30.08F WCI  28
CLARENDON 2WSW   N/A     45  29  53 SW15      30.04F
DIMMITT 2NE      N/A     40  27  61 SW16      30.11S WCI  31
FLOYDADA 2NNE    N/A     37  29  73 SW12      30.12F WCI  30
FRIONA 2NE       N/A     37  27  68 SW8       30.12S WCI  30
GOODLETT 3W      N/A     34  30  83 S5        30.10F WCI  30
HART 3N          N/A     30  26  84 SW12      30.11F WCI  21
HEREFORD 2NW     N/A     36  27  67 SW12      30.09F WCI  28
MCLEAN 1E        N/A     36  29  77 SW10      30.03F WCI  28
MEMPHIS 1NE      N/A     27  24  91 N2        30.08F
MULESHOE 2SSW    N/A     29  25  87 SW8       30.13F WCI  21
OLTON 6S         N/A     36  28  73 SW13      30.13F WCI  28
PALO DURO SP     N/A     42  28  57 W9        30.09F
PAMPA 2E         N/A     40  29  65 SW7       30.02F
PLAINVIEW 1S     N/A     31  27  86 SW5       30.12F WCI  26
SILVERTON 7ESE   N/A     37  28  72 SW15      30.10F WCI  28
TULIA 2ENE       N/A     36  28  72 SW10      30.11S WCI  29
TURKEY 2WSW      N/A     45  30  56 SW14      30.08S
UMBARGER 3NNE    N/A     36  27  69 SW9       30.09F WCI  29
$$

TXZ033>036-039>041-045>048-281300
TEXAS TECH WEST TEXAS MESONET/SOUTH PLAINS

CITY           SKY/WX    TMP DP  RH WIND       PRES   REMARKS
AIKEN 3WSW       N/A     30  27  88 SW9       30.13F WCI  22
ANDREWS 2NE      N/A     41  33  73 S8        30.19F
ANTON 6SSW       N/A     38  30  72 W6        30.15S WCI  33
BROWNFIELD 2S    N/A     35  29  79 SW10      30.17F WCI  27
DENVR CTY 7WNW   N/A     36  28  72 SW12      30.16F WCI  28
GAIL 2ESE        N/A     35  32  87 S7        30.18F WCI  29
LAMESA 2SE       N/A     34  32  90 SW6       30.19F WCI  29
LEVELLAND 4S     N/A     35  28  75 SW6       30.15F WCI  29
LUBBOCK 3WNW     N/A     42  30  63 SW10      30.16R
MORTON 1ENE      N/A     39  28  64 SW7       30.16S WCI  34
ODONNELL 1N      N/A     35  31  85 SW8       30.18S WCI  29
PLAINS 3N        N/A     31  25  78 W7        30.17S WCI  25
RALLS 1SE        N/A     42  32  66 SW14      30.15S
REESE CENTER     N/A     37  29  73 SW9       30.15S WCI  31
SEAGRAVES 1SW    N/A     33  29  85 SW6       30.17F WCI  27
SEMINOLE 2NNE    N/A     35  30  82 SW6       30.17F WCI  30
SLATON 2NE       N/A     42  32  70 SW16      30.15R
SNYDER 3E        N/A     40  34  79 S10       30.18F WCI  34
SUNDOWN 8SW      N/A     31  26  82 SW8       30.15F WCI  23
TAHOKA 3NNE      N/A     38  31  75 SW12      30.15F WCI  31
WOLFFORTH 6SSW   N/A     38  31  73 SW10      30.16S WCI  31
$$

TXZ031-032-036>038-042>044-281300-
TEXAS TECH WEST TEXAS MESONET/ROLLING PLAINS

CITY           SKY/WX    TMP DP  RH WIND       PRES   REMARKS
ASPERMONT 3NE    N/A     44  35  68 S7        30.16F
GRAHAM 5SSW      N/A     41  33  73 W7        30.16F
GUTHRIE 10WSW    N/A     42  33  70 SW10      30.14S
HASKELL 1NW      N/A     42  34  71 S12       30.16F
JAYTON 1SSE      N/A     38  33  80 S7        30.16S WCI  33
KNOX CITY 3NW    N/A     35  31  87 S3        30.17S
LK A HENRY 1NW   N/A     46  35  64 SW12      30.15F
NORTHFIELD 1S    N/A     45  32  61 W1        30.10F
ODELL 4ENE       N/A     40  33  76 S10       30.14F WCI  34
PADUCAH 10SW     N/A     49  34  56 SW18      30.10S
POST 1NE         N/A     43  33  68 SW12      30.14F
RRING SPRGS 3N   N/A     46  33  61 SW18      30.09F
SEYMOUR 3NW      N/A     38  32  81 S8        30.16F WCI  32
SPUR 1W          N/A     40  33  75 W8        30.15S WCI  34
WEINERT 2NNE     N/A     35  31  87 S3        30.17F
WHITE RVR 6NE    N/A     44  32  64 SW7       30.14S
$$

TXZ052-054-060>062-072-078-127-140-154-169-281300-
TEXAS TECH WEST TEXAS MESONET/PERMIAN BASIN/
CONCHO VALLEY/BIG COUNTRY/EDWARDS PLATEAU

CITY           SKY/WX    TMP DP  RH WIND       PRES   REMARKS
COYANOSA 2N      N/A     30  26  83 N5        30.20S WCI  25
JUNCTION 1SSW    N/A     39  35  83 CALM      30.28F
MERTZON 3NNE     N/A     46  42  85 S13       30.23F
SAN ANGELO 7NW   N/A     45  37  72 SW6       30.23F
STRLNG CT 4WSW   N/A     46  38  74 S15       30.21F
ST LAWRNCE 5SW   N/A     43  36  74 S10       30.21F
SWEETWATR 11SW   N/A     45  36  69 S10       30.20F
WALL 1E          N/A     48  42  80 SW12      30.23F
$$

TXZ055-058-074-075-080-082-281300-
TEXAS TECH WEST TEXAS MESONET/FAR WEST/SOUTHWEST MOUNTAINS/TRANS PECOS

CITY           SKY/WX    TMP DP  RH WIND       PRES   REMARKS
PRSMN GAP BBNP   N/A     38  31  78 SW3       30.28S
GUADLPE MTN NP   N/A     57  11  16 W14       30.24F
$$